Location: Unspecified
(0.0000°N, 0.0000°E)
Time: 11:08:02
(UTC+00:00)

LightSail 2 - Pass Details

Date: 21 November 2019
Orbit: 696 x 730 km, 24.0° (Epoch: 14 December)

Event Time Altitude Azimuth Distance (km) Brightness Sun altitude
Exits shadow 04:24:17 11° 354° (N) 2,137 7.3 -19.1°
Maximum altitude 04:26:29 14° 20° (NNE) 1,965 7.4 -18.6°
Drops below altitude 10° 04:29:01 10° 50° (NE) 2,205 8.0 -18.0°
Sets 04:32:45 0° 76° (ENE) 3,131 9.4 -17.1°
